Tracking 32422 objects as of 8-Dec-2025
HD Live streaming from Space Station
objects crossing your sky now

COSMOS 1761

Track COSMOS 1761 now!
COSMOS 1761 is classified as:


NORAD ID: 16849
Int'l Code: 1986-050A
Perigee: 5,027.9 km
Apogee: 35,347.8 km
Inclination: 70.3 °
Period: 717.9 minutes
Semi major axis: 26558 km
RCS: 12.1379 m2 (large)
Launch date: July 5, 1986
Source: Commonwealth of Independent States (former USSR) (CIS)
Launch site: PLESETSK MISSILE AND SPACE COMPLEX (PKMTR)
Your satellite tracking list
Your tracking list is empty




NASA's NSSDC Master Catalog

Two Line Element Set (TLE):
1 16849U 86050A   25333.04463911 -.00000480  00000-0  00000+0 0  9993
2 16849  70.3214  54.5605 5708046   9.2466 346.6349  2.00580452288570
Source of the keplerian elements: AFSPC